| time (UTC) | temp F | wind direction | speed knots | gust knots | rain 1hr in | rain 24hr in | rain mn in | humidity % | barometer mb |
| 20260505184520 | 82 | 179 | 1.7 | 9.6 | 0.00 | 0.00 | 0.00 | 39 | 1006.9 |
| 20260505184017 | 82 | 246 | 0.9 | 9.6 | 0.00 | 0.00 | 0.00 | 41 | 1006.9 |
| 20260505183514 | 81 | 215 | 0.9 | 13.0 | 0.00 | 0.00 | 0.00 | 42 | 1006.8 |
| 20260505183016 | 81 | 231 | 2.6 | 13.9 | 0.00 | 0.00 | 0.00 | 40 | 1006.9 |
| 20260505182516 | 81 | 213 | 5.2 | 13.9 | 0.00 | 0.00 | 0.00 | 39 | 1007.0 |
| 20260505182010 | 81 | 273 | 2.6 | 9.6 | 0.00 | 0.00 | 0.00 | 42 | 1007.2 |
| 20260505181511 | 80 | 250 | 3.5 | 13.0 | 0.00 | 0.00 | 0.00 | 41 | 1007.1 |
| 20260505181009 | 81 | 236 | 4.3 | 8.7 | 0.00 | 0.00 | 0.00 | 39 | 1007.2 |
| 20260505180508 | 81 | 122 | 1.7 | 7.0 | 0.00 | 0.00 | 0.00 | 40 | 1007.2 |
| 20260505180014 | 81 | 71 | 2.6 | 12.2 | 0.00 | 0.00 | 0.00 | 41 | 1007.5 |
| 20260505175510 | 80 | 221 | 3.5 | 12.2 | 0.00 | 0.00 | 0.00 | 41 | 1007.3 |
| 20260505175006 | 81 | 210 | 2.6 | 12.2 | 0.00 | 0.00 | 0.00 | 41 | 1007.4 |
| 20260505174507 | 80 | 188 | 2.6 | 12.2 | 0.00 | 0.00 | 0.00 | 42 | 1007.4 |
| 20260505174002 | 80 | 158 | 3.5 | 12.2 | 0.00 | 0.00 | 0.00 | 44 | 1007.4 |
| 20260505173504 | 80 | 258 | 3.5 | 12.2 | 0.00 | 0.00 | 0.00 | 45 | 1007.6 |
| 20260505173100 | 81 | 229 | 1.7 | 7.8 | 0.00 | 0.00 | 0.00 | 47 | 1007.7 |
| 20260505172559 | 80 | 183 | 0.9 | 8.7 | 0.00 | 0.00 | 0.00 | 47 | 1007.7 |
| 20260505172100 | 80 | 218 | 2.6 | 12.2 | 0.00 | 0.00 | 0.00 | 43 | 1007.7 |
| 20260505171557 | 80 | 208 | 2.6 | 11.3 | 0.00 | 0.00 | 0.00 | 43 | 1007.8 |
| 20260505171056 | 80 | 224 | 1.7 | 10.4 | 0.00 | 0.00 | 0.00 | 48 | 1007.8 |
| 20260505170553 | 79 | 224 | 0.9 | 11.3 | 0.00 | 0.00 | 0.00 | 46 | 1007.9 |
| 20260505170054 | 79 | 255 | 4.3 | 13.0 | 0.00 | 0.00 | 0.00 | 45 | 1007.9 |
| 20260505165552 | 79 | 181 | 6.1 | 13.0 | 0.00 | 0.00 | 0.00 | 45 | 1008.1 |
| 20260505165052 | 79 | 221 | 1.7 | 10.4 | 0.00 | 0.00 | 0.00 | 48 | 1008.1 |
| 20260505164555 | 79 | 219 | 4.3 | 10.4 | 0.00 | 0.00 | 0.00 | 46 | 1008.2 |
| 20260505164050 | 79 | 207 | 0.9 | 12.2 | 0.00 | 0.00 | 0.00 | 50 | 1008.1 |
| 20260505163547 | 78 | 236 | 2.6 | 12.2 | 0.00 | 0.00 | 0.00 | 50 | 1008.2 |
| 20260505163046 | 78 | 217 | 3.5 | 13.0 | 0.00 | 0.00 | 0.00 | 48 | 1008.4 |
| 20260505162544 | 78 | 314 | 1.7 | 12.2 | 0.00 | 0.00 | 0.00 | 48 | 1008.6 |
| 20260505162044 | 78 | 214 | 5.2 | 13.0 | 0.00 | 0.00 | 0.00 | 46 | 1008.6 |
| 20260505161543 | 78 | 201 | 4.3 | 13.0 | 0.00 | 0.00 | 0.00 | 48 | 1008.6 |
| 20260505161043 | 78 | 221 | 3.5 | 10.4 | 0.00 | 0.00 | 0.00 | 47 | 1008.6 |
| 20260505160541 | 78 | 224 | 1.7 | 13.9 | 0.00 | 0.00 | 0.00 | 49 | 1008.6 |
| 20260505153035 | 77 | 221 | 4.3 | 11.3 | 0.00 | 0.00 | 0.00 | 50 | 1008.5 |
| 20260505152531 | 76 | 245 | 3.5 | 13.0 | 0.00 | 0.00 | 0.00 | 53 | 1008.5 |
| 20260505152030 | 76 | 241 | 4.3 | 13.0 | 0.00 | 0.00 | 0.00 | 51 | 1008.6 |
| 20260505151529 | 76 | 246 | 1.7 | 10.4 | 0.00 | 0.00 | 0.00 | 49 | 1008.6 |
| 20260505151130 | 76 | 221 | 0.9 | 12.2 | 0.00 | 0.00 | 0.00 | 52 | 1008.6 |
| 20260505150530 | 76 | 156 | 2.6 | 12.2 | 0.00 | 0.00 | 0.00 | 51 | 1008.6 |
| 20260505140510 | 73 | 227 | 0.0 | 7.0 | 0.00 | 0.00 | 0.00 | 57 | 1008.8 |
| 20260505124548 | 67 | 172 | 0.9 | 2.6 | 0.00 | 0.00 | 0.00 | 65 | 1009.7 |
| 20260505124045 | 67 | 199 | 0.0 | 2.6 | 0.00 | 0.00 | 0.00 | 66 | 1009.8 |
| 20260505123543 | 67 | 155 | 0.0 | 2.6 | 0.00 | 0.00 | 0.00 | 65 | 1009.7 |
| 20260505123049 | 66 | 157 | 0.0 | 1.7 | 0.00 | 0.00 | 0.00 | 65 | 1009.7 |
| 20260505122540 | 66 | 169 | 0.0 | 1.7 | 0.00 | 0.00 | 0.00 | 66 | 1009.7 |
| 20260505122039 | 66 | 148 | 0.0 | 1.7 | 0.00 | 0.00 | 0.00 | 66 | 1009.6 |
| 20260505121540 | 65 | 169 | 0.0 | 4.3 | 0.00 | 0.00 | 0.00 | 67 | 1009.6 |
| 20260505121035 | 64 | 138 | 0.0 | 4.3 | 0.00 | 0.00 | 0.00 | 68 | 1009.5 |
| 20260505120535 | 64 | 153 | 0.0 | 3.5 | 0.00 | 0.00 | 0.00 | 68 | 1009.3 |
| 20260505120043 | 64 | 98 | 0.0 | 4.3 | 0.00 | 0.00 | 0.00 | 70 | 1009.3 |
| 20260505115530 | 63 | 115 | 0.9 | 3.5 | 0.00 | 0.00 | 0.00 | 70 | 1009.3 |
| 20260505115029 | 63 | 124 | 0.9 | 3.5 | 0.00 | 0.00 | 0.00 | 69 | 1009.3 |
| 20260505114532 | 63 | 91 | 0.0 | 2.6 | 0.00 | 0.00 | 0.00 | 71 | 1009.2 |
| 20260505114028 | 63 | 133 | 0.0 | 1.7 | 0.00 | 0.00 | 0.00 | 69 | 1009.3 |
| 20260505113525 | 63 | 93 | 0.0 | 0.0 | 0.00 | 0.00 | 0.00 | 70 | 1009.3 |
| 20260505113024 | 62 | 124 | 0.0 | 0.9 | 0.00 | 0.00 | 0.00 | 70 | 1009.2 |
| 20260505112522 | 61 | 247 | 0.0 | 0.9 | 0.00 | 0.00 | 0.00 | 71 | 1009.4 |
| 20260505112021 | 61 | 264 | 0.0 | 0.9 | 0.00 | 0.00 | 0.00 | 71 | 1009.3 |
| 20260505111521 | 61 | 264 | 0.0 | 0.9 | 0.00 | 0.00 | 0.00 | 71 | 1009.1 |
| 20260505111019 | 61 | 273 | 0.0 | 0.9 | 0.00 | 0.00 | 0.00 | 71 | 1009.0 |
| 20260505110518 | 60 | 101 | 0.0 | 0.9 | 0.00 | 0.00 | 0.00 | 73 | 1008.9 |
| 20260505102011 | 56 | 109 | 0.0 | 1.7 | 0.00 | 0.00 | 0.00 | 77 | 1008.6 |
| 20260505101511 | 56 | 68 | 0.0 | 0.9 | 0.00 | 0.00 | 0.00 | 77 | 1008.5 |
| 20260505101014 | 56 | 60 | 0.0 | 0.9 | 0.00 | 0.00 | 0.00 | 77 | 1008.6 |
| 20260505100508 | 56 | 46 | 0.0 | 0.9 | 0.00 | 0.00 | 0.00 | 78 | 1008.6 |
| 20260505100010 | 56 | 46 | 0.0 | 0.9 | 0.00 | 0.00 | 0.00 | 77 | 1008.5 |
| 20260505095509 | 56 | 46 | 0.0 | 1.7 | 0.00 | 0.00 | 0.00 | 77 | 1008.4 |
| 20260505095105 | 57 | 96 | 0.0 | 1.7 | 0.00 | 0.00 | 0.00 | 76 | 1008.3 |
| 20260505094504 | 57 | 103 | 0.0 | 0.9 | 0.00 | 0.00 | 0.00 | 75 | 1008.2 |
| 20260505094003 | 57 | 79 | 0.0 | 0.9 | 0.00 | 0.00 | 0.00 | 75 | 1008.2 |
| 20260505093503 | 58 | 79 | 0.0 | 0.9 | 0.00 | 0.00 | 0.00 | 74 | 1008.3 |
| 20260505093002 | 58 | 69 | 0.0 | 0.9 | 0.00 | 0.00 | 0.00 | 75 | 1008.2 |
| 20260505092503 | 57 | 86 | 0.0 | 0.9 | 0.00 | 0.00 | 0.00 | 75 | 1008.2 |
| 20260505092100 | 58 | 85 | 0.0 | 0.9 | 0.00 | 0.00 | 0.00 | 74 | 1008.3 |
| 20260505091500 | 58 | 156 | 0.0 | 2.6 | 0.00 | 0.00 | 0.00 | 73 | 1008.3 |
| 20260505091104 | 58 | 84 | 0.0 | 2.6 | 0.00 | 0.00 | 0.00 | 73 | 1008.3 |
| 20260505090559 | 58 | 91 | 0.0 | 1.7 | 0.00 | 0.00 | 0.00 | 74 | 1008.1 |
| 20260505090059 | 58 | 126 | 0.0 | 1.7 | 0.00 | 0.00 | 0.00 | 74 | 1008.3 |
| 20260505085558 | 58 | 111 | 0.0 | 2.6 | 0.00 | 0.00 | 0.00 | 74 | 1008.2 |
| 20260505085057 | 57 | 67 | 0.0 | 0.9 | 0.00 | 0.00 | 0.00 | 75 | 1008.1 |
| 20260505084556 | 57 | 108 | 0.0 | 3.5 | 0.00 | 0.00 | 0.00 | 74 | 1008.1 |
| 20260505084053 | 58 | 75 | 0.9 | 3.5 | 0.00 | 0.00 | 0.00 | 73 | 1008.2 |
| 20260505083554 | 58 | 321 | 0.0 | 1.7 | 0.00 | 0.00 | 0.00 | 73 | 1008.1 |
| 20260505083057 | 58 | 321 | 0.0 | 1.7 | 0.00 | 0.00 | 0.00 | 72 | 1008.1 |
| 20260505082552 | 58 | 330 | 0.0 | 0.9 | 0.00 | 0.00 | 0.00 | 72 | 1008.1 |
| 20260505082049 | 58 | 101 | 0.0 | 0.9 | 0.00 | 0.00 | 0.00 | 72 | 1008.1 |
| 20260505081549 | 58 | 101 | 0.0 | 2.6 | 0.00 | 0.00 | 0.00 | 73 | 1008.1 |
| 20260505081050 | 59 | 6 | 0.0 | 2.6 | 0.00 | 0.00 | 0.00 | 72 | 1008.1 |
| 20260505080545 | 59 | 304 | 0.0 | 0.9 | 0.00 | 0.00 | 0.00 | 71 | 1008.1 |
| 20260505080046 | 59 | 98 | 0.0 | 0.9 | 0.00 | 0.00 | 0.00 | 70 | 1008.1 |
| 20260505075542 | 60 | 259 | 0.0 | 1.7 | 0.00 | 0.00 | 0.00 | 70 | 1008.1 |
| 20260505075041 | 60 | 165 | 0.0 | 1.7 | 0.00 | 0.00 | 0.00 | 70 | 1008.0 |
| 20260505074541 | 60 | 115 | 0.0 | 3.5 | 0.00 | 0.00 | 0.00 | 70 | 1007.9 |
| 20260505074040 | 60 | 127 | 0.0 | 3.5 | 0.00 | 0.00 | 0.00 | 70 | 1007.9 |
| 20260505073539 | 60 | 109 | 0.0 | 1.7 | 0.00 | 0.00 | 0.00 | 69 | 1007.9 |
| 20260505073046 | 60 | 87 | 0.0 | 1.7 | 0.00 | 0.00 | 0.00 | 69 | 1007.8 |
| 20260505072537 | 60 | 89 | 0.0 | 1.7 | 0.00 | 0.00 | 0.00 | 69 | 1007.8 |
| 20260505072035 | 60 | 70 | 0.0 | 1.7 | 0.00 | 0.00 | 0.00 | 69 | 1007.8 |
| 20260505071545 | 60 | 84 | 0.0 | 1.7 | 0.00 | 0.00 | 0.00 | 69 | 1007.8 |
| 20260505071034 | 60 | 101 | 0.0 | 1.7 | 0.00 | 0.00 | 0.00 | 68 | 1007.9 |
| 20260505070532 | 61 | 105 | 0.0 | 2.6 | 0.00 | 0.00 | 0.00 | 68 | 1008.1 |
| 20260505070031 | 61 | 89 | 0.9 | 2.6 | 0.00 | 0.00 | 0.00 | 68 | 1008.1 |
| 20260505065531 | 60 | 98 | 0.9 | 3.5 | 0.00 | 0.00 | 0.00 | 68 | 1008.0 |
| 20260505065031 | 60 | 77 | 0.0 | 3.5 | 0.00 | 0.00 | 0.00 | 69 | 1008.0 |
| 20260505064530 | 60 | 86 | 0.9 | 4.3 | 0.00 | 0.00 | 0.00 | 69 | 1008.2 |
| 20260505064129 | 60 | 89 | 1.7 | 4.3 | 0.00 | 0.00 | 0.00 | 68 | 1008.1 |
| 20260505063528 | 60 | 110 | 0.0 | 3.5 | 0.00 | 0.00 | 0.00 | 68 | 1008.3 |
| 20260505063025 | 60 | 97 | 0.0 | 1.7 | 0.00 | 0.00 | 0.00 | 67 | 1008.4 |
| 20260505062624 | 60 | 114 | 0.0 | 1.7 | 0.00 | 0.00 | 0.00 | 67 | 1008.4 |
| 20260505062024 | 61 | 89 | 0.0 | 0.9 | 0.00 | 0.00 | 0.00 | 67 | 1008.3 |
| 20260505061523 | 61 | 141 | 0.0 | 0.9 | 0.00 | 0.00 | 0.00 | 67 | 1008.4 |
| 20260505061025 | 61 | 122 | 0.0 | 1.7 | 0.00 | 0.00 | 0.00 | 67 | 1008.3 |
| 20260505060524 | 61 | 117 | 0.0 | 1.7 | 0.00 | 0.00 | 0.00 | 66 | 1008.3 |
| 20260505060035 | 61 | 105 | 0.0 | 1.7 | 0.00 | 0.00 | 0.00 | 66 | 1008.3 |
| 20260505055523 | 61 | 126 | 0.0 | 1.7 | 0.00 | 0.00 | 0.00 | 66 | 1008.4 |
| 20260505055019 | 61 | 120 | 0.0 | 3.5 | 0.00 | 0.00 | 0.00 | 66 | 1008.3 |
| 20260505054518 | 61 | 150 | 0.9 | 4.3 | 0.00 | 0.00 | 0.00 | 66 | 1008.2 |
| 20260505054016 | 61 | 136 | 0.9 | 4.3 | 0.00 | 0.00 | 0.00 | 66 | 1008.2 |
| 20260505053515 | 61 | 135 | 0.0 | 4.3 | 0.00 | 0.00 | 0.00 | 65 | 1008.3 |
| 20260505053015 | 61 | 156 | 0.9 | 4.3 | 0.00 | 0.00 | 0.00 | 65 | 1008.3 |
| 20260505052514 | 61 | 149 | 0.9 | 6.1 | 0.00 | 0.00 | 0.00 | 65 | 1008.2 |
| 20260505052012 | 61 | 142 | 0.9 | 6.1 | 0.00 | 0.00 | 0.00 | 65 | 1008.1 |
| 20260505051519 | 61 | 152 | 0.9 | 5.2 | 0.00 | 0.00 | 0.00 | 65 | 1008.1 |
| 20260505051012 | 61 | 165 | 1.7 | 6.1 | 0.00 | 0.00 | 0.00 | 65 | 1008.0 |
| 20260505050512 | 61 | 192 | 0.9 | 4.3 | 0.00 | 0.00 | 0.00 | 65 | 1008.1 |
| 20260505041505 | 61 | 158 | 1.7 | 7.0 | 0.00 | 0.00 | 0.00 | 63 | 1007.9 |
| 20260505041002 | 61 | 139 | 1.7 | 7.0 | 0.00 | 0.00 | 0.00 | 63 | 1008.1 |
| 20260505040601 | 61 | 142 | 0.9 | 7.8 | 0.00 | 0.00 | 0.00 | 63 | 1008.1 |
| 20260505040101 | 61 | 145 | 1.7 | 7.8 | 0.00 | 0.00 | 0.00 | 63 | 1008.0 |
| 20260505035559 | 61 | 174 | 0.9 | 4.3 | 0.00 | 0.00 | 0.00 | 63 | 1008.1 |
| 20260505035101 | 61 | 160 | 1.7 | 6.1 | 0.00 | 0.00 | 0.00 | 62 | 1007.9 |
| 20260505034556 | 62 | 158 | 0.9 | 6.1 | 0.00 | 0.00 | 0.00 | 62 | 1007.9 |
| 20260505034056 | 62 | 144 | 0.9 | 4.3 | 0.00 | 0.00 | 0.00 | 62 | 1007.8 |
| 20260505033554 | 62 | 128 | 0.9 | 4.3 | 0.00 | 0.00 | 0.00 | 62 | 1007.8 |
| 20260505033054 | 62 | 116 | 1.7 | 4.3 | 0.00 | 0.00 | 0.00 | 62 | 1007.9 |
| 20260505032552 | 61 | 111 | 0.9 | 6.1 | 0.00 | 0.00 | 0.00 | 62 | 1007.9 |
| 20260505032055 | 61 | 150 | 0.9 | 6.1 | 0.00 | 0.00 | 0.00 | 62 | 1007.8 |
| 20260505031555 | 62 | 132 | 0.9 | 5.2 | 0.00 | 0.00 | 0.00 | 62 | 1007.8 |
| 20260505031051 | 62 | 125 | 0.9 | 3.5 | 0.00 | 0.00 | 0.00 | 62 | 1007.7 |
| 20260505030553 | 61 | 170 | 0.9 | 4.3 | 0.00 | 0.00 | 0.00 | 62 | 1007.7 |
| 20260505030050 | 62 | 123 | 1.7 | 5.2 | 0.00 | 0.00 | 0.00 | 62 | 1007.8 |
| 20260505025550 | 62 | 136 | 0.9 | 3.5 | 0.00 | 0.00 | 0.00 | 61 | 1007.8 |
| 20260505025049 | 62 | 116 | 0.9 | 3.5 | 0.00 | 0.00 | 0.00 | 61 | 1007.9 |
| 20260505024554 | 62 | 157 | 0.9 | 3.5 | 0.00 | 0.00 | 0.00 | 61 | 1007.8 |
| 20260505024047 | 62 | 144 | 0.9 | 3.5 | 0.00 | 0.00 | 0.00 | 61 | 1007.7 |
| 20260505023546 | 62 | 143 | 0.9 | 3.5 | 0.00 | 0.00 | 0.00 | 60 | 1007.7 |
| 20260505023051 | 62 | 198 | 0.9 | 6.1 | 0.00 | 0.00 | 0.00 | 60 | 1007.9 |
| 20260505022545 | 62 | 144 | 0.9 | 3.5 | 0.00 | 0.00 | 0.00 | 59 | 1007.9 |
| 20260505022045 | 62 | 115 | 0.9 | 2.6 | 0.00 | 0.00 | 0.00 | 59 | 1008.0 |
| 20260505021544 | 62 | 124 | 0.9 | 2.6 | 0.00 | 0.00 | 0.00 | 59 | 1008.1 |
| 20260505021044 | 62 | 100 | 0.9 | 2.6 | 0.00 | 0.00 | 0.00 | 59 | 1007.9 |
| 20260505020544 | 62 | 144 | 0.9 | 4.3 | 0.00 | 0.00 | 0.00 | 58 | 1007.9 |
| 20260505020043 | 63 | 140 | 1.7 | 4.3 | 0.00 | 0.00 | 0.00 | 58 | 1007.9 |
| 20260505015542 | 63 | 177 | 0.9 | 3.5 | 0.00 | 0.00 | 0.00 | 57 | 1008.0 |
| 20260505015045 | 63 | 157 | 0.9 | 5.2 | 0.00 | 0.00 | 0.00 | 56 | 1008.1 |
| 20260505014542 | 63 | 165 | 1.7 | 5.2 | 0.00 | 0.00 | 0.00 | 56 | 1008.1 |
| 20260505014044 | 63 | 187 | 0.9 | 4.3 | 0.00 | 0.00 | 0.00 | 56 | 1008.1 |
| 20260505013540 | 63 | 136 | 1.7 | 4.3 | 0.00 | 0.00 | 0.00 | 56 | 1008.1 |
| 20260505013056 | 63 | 93 | 0.9 | 5.2 | 0.00 | 0.00 | 0.00 | 56 | 1008.1 |
| 20260505012542 | 64 | 159 | 1.7 | 5.2 | 0.00 | 0.00 | 0.00 | 55 | 1008.0 |
| 20260505012037 | 64 | 136 | 0.9 | 6.1 | 0.00 | 0.00 | 0.00 | 55 | 1008.0 |
| 20260505011537 | 64 | 152 | 1.7 | 6.1 | 0.00 | 0.00 | 0.00 | 55 | 1007.9 |
| 20260505011036 | 64 | 145 | 1.7 | 3.5 | 0.00 | 0.00 | 0.00 | 55 | 1007.9 |
| 20260505010534 | 64 | 143 | 1.7 | 8.7 | 0.00 | 0.00 | 0.00 | 55 | 1007.9 |
| 20260505010035 | 64 | 148 | 1.7 | 8.7 | 0.00 | 0.00 | 0.00 | 55 | 1007.9 |
| 20260505005534 | 64 | 197 | 1.7 | 5.2 | 0.00 | 0.00 | 0.00 | 55 | 1007.8 |
| 20260505005033 | 64 | 124 | 0.9 | 7.0 | 0.00 | 0.00 | 0.00 | 56 | 1007.8 |
| 20260505004532 | 64 | 215 | 0.9 | 4.3 | 0.00 | 0.00 | 0.00 | 55 | 1007.8 |
| 20260505004031 | 64 | 168 | 0.9 | 4.3 | 0.00 | 0.00 | 0.00 | 55 | 1007.8 |
| 20260505003533 | 64 | 113 | 0.9 | 4.3 | 0.00 | 0.00 | 0.00 | 55 | 1007.7 |
| 20260505003033 | 64 | 139 | 0.9 | 3.5 | 0.00 | 0.00 | 0.00 | 55 | 1007.9 |
| 20260505002530 | 65 | 151 | 0.0 | 2.6 | 0.00 | 0.00 | 0.00 | 55 | 1007.8 |
| 20260505002029 | 65 | 152 | 0.9 | 2.6 | 0.00 | 0.00 | 0.00 | 54 | 1007.7 |
| 20260505001530 | 65 | 124 | 0.9 | 5.2 | 0.00 | 0.00 | 0.00 | 54 | 1007.7 |
| 20260505001029 | 66 | 165 | 1.7 | 5.2 | 0.00 | 0.00 | 0.00 | 53 | 1007.7 |
| 20260505000531 | 66 | 136 | 0.9 | 4.3 | 0.00 | 0.00 | 0.00 | 53 | 1007.7 |
| 20260505000029 | 66 | 158 | 0.9 | 5.2 | 0.00 | 0.00 | 0.00 | 53 | 1007.7 |
| 20260504235525 | 66 | 160 | 1.7 | 5.2 | 0.00 | 0.00 | 0.00 | 53 | 1007.7 |
| 20260504235025 | 66 | 115 | 0.9 | 3.5 | 0.00 | 0.00 | 0.00 | 53 | 1007.6 |
| 20260504234524 | 67 | 111 | 0.9 | 3.5 | 0.00 | 0.00 | 0.00 | 52 | 1007.5 |
| 20260504234029 | 67 | 143 | 0.9 | 2.6 | 0.00 | 0.00 | 0.00 | 52 | 1007.5 |
| 20260504233523 | 67 | 167 | 0.0 | 3.5 | 0.00 | 0.00 | 0.00 | 51 | 1007.4 |
| 20260504233022 | 68 | 154 | 0.9 | 4.3 | 0.00 | 0.00 | 0.00 | 50 | 1007.3 |
| 20260504232522 | 69 | 152 | 0.9 | 3.5 | 0.00 | 0.00 | 0.00 | 49 | 1007.2 |
| 20260504232021 | 69 | 149 | 0.9 | 8.7 | 0.00 | 0.00 | 0.00 | 49 | 1007.3 |
| 20260504231520 | 69 | 116 | 1.7 | 7.8 | 0.00 | 0.00 | 0.00 | 48 | 1007.3 |
| 20260504231020 | 70 | 165 | 0.9 | 7.0 | 0.00 | 0.00 | 0.00 | 48 | 1007.3 |
| 20260504230520 | 71 | 206 | 1.7 | 7.0 | 0.00 | 0.00 | 0.00 | 47 | 1007.3 |
| 20260504230018 | 72 | 124 | 1.7 | 5.2 | 0.00 | 0.00 | 0.00 | 46 | 1007.2 |
| 20260504225518 | 72 | 201 | 0.9 | 4.3 | 0.00 | 0.00 | 0.00 | 45 | 1007.2 |
| 20260504225017 | 72 | 203 | 0.9 | 4.3 | 0.00 | 0.00 | 0.00 | 45 | 1007.2 |
| 20260504224519 | 72 | 168 | 1.7 | 7.0 | 0.00 | 0.00 | 0.00 | 44 | 1007.2 |
| 20260504224016 | 73 | 171 | 1.7 | 7.0 | 0.00 | 0.00 | 0.00 | 45 | 1007.2 |
| 20260504223515 | 73 | 148 | 1.7 | 6.1 | 0.00 | 0.00 | 0.00 | 44 | 1007.3 |
| 20260504223015 | 73 | 143 | 0.9 | 4.3 | 0.00 | 0.00 | 0.00 | 45 | 1007.3 |
| 20260504222513 | 73 | 210 | 0.0 | 5.2 | 0.00 | 0.00 | 0.00 | 44 | 1007.2 |
| 20260504222016 | 73 | 237 | 0.9 | 6.1 | 0.00 | 0.00 | 0.00 | 44 | 1007.2 |
| 20260504221512 | 73 | 157 | 1.7 | 6.1 | 0.00 | 0.00 | 0.00 | 43 | 1007.3 |
| 20260504221011 | 73 | 168 | 0.0 | 3.5 | 0.00 | 0.00 | 0.00 | 43 | 1007.3 |
| 20260504220512 | 74 | 179 | 0.9 | 3.5 | 0.00 | 0.00 | 0.00 | 44 | 1007.4 |
| 20260504220010 | 74 | 150 | 0.9 | 6.1 | 0.00 | 0.00 | 0.00 | 43 | 1007.4 |
| 20260504215508 | 73 | 298 | 0.9 | 13.9 | 0.00 | 0.00 | 0.00 | 44 | 1007.3 |
| 20260504215007 | 73 | 252 | 2.6 | 13.9 | 0.00 | 0.00 | 0.00 | 42 | 1007.5 |
| 20260504214517 | 74 | 120 | 1.7 | 9.6 | 0.00 | 0.00 | 0.00 | 42 | 1007.6 |
| 20260504214012 | 74 | 229 | 2.6 | 7.0 | 0.00 | 0.00 | 0.00 | 42 | 1007.5 |
| 20260504213505 | 74 | 221 | 0.9 | 4.3 | 0.00 | 0.00 | 0.00 | 44 | 1007.4 |
| 20260504213004 | 74 | 212 | 0.9 | 5.2 | 0.00 | 0.00 | 0.00 | 43 | 1007.5 |
| 20260504212603 | 74 | 176 | 0.0 | 5.2 | 0.00 | 0.00 | 0.00 | 43 | 1007.5 |
| 20260504212002 | 74 | 203 | 1.7 | 7.0 | 0.00 | 0.00 | 0.00 | 41 | 1007.5 |
| 20260504211600 | 74 | 163 | 0.0 | 7.0 | 0.00 | 0.00 | 0.00 | 42 | 1007.5 |
| 20260504211101 | 74 | 193 | 0.9 | 7.8 | 0.00 | 0.00 | 0.00 | 42 | 1007.4 |
| 20260504210558 | 74 | 186 | 2.6 | 7.8 | 0.00 | 0.00 | 0.00 | 42 | 1007.6 |
| 20260504210059 | 74 | 203 | 0.0 | 3.5 | 0.00 | 0.00 | 0.00 | 44 | 1007.6 |
| 20260504205555 | 73 | 252 | 0.9 | 3.5 | 0.00 | 0.00 | 0.00 | 44 | 1007.6 |
| 20260504205056 | 73 | 249 | 0.0 | 13.9 | 0.00 | 0.00 | 0.00 | 44 | 1007.6 |
| 20260504204553 | 73 | 221 | 0.9 | 13.9 | 0.00 | 0.00 | 0.00 | 43 | 1007.7 |
| 20260504204052 | 73 | 213 | 0.9 | 8.7 | 0.00 | 0.00 | 0.00 | 45 | 1007.7 |
| 20260504203550 | 73 | 224 | 1.7 | 7.8 | 0.00 | 0.00 | 0.00 | 43 | 1007.6 |
| 20260504203048 | 73 | 248 | 2.6 | 7.8 | 0.00 | 0.00 | 0.00 | 43 | 1007.7 |
| 20260504202547 | 73 | 202 | 1.7 | 7.8 | 0.00 | 0.00 | 0.00 | 45 | 1007.7 |
| 20260504202046 | 73 | 233 | 0.9 | 7.0 | 0.00 | 0.00 | 0.00 | 44 | 1008.0 |
| 20260504201559 | 73 | 207 | 0.9 | 9.6 | 0.00 | 0.00 | 0.00 | 44 | 1008.0 |
| 20260504201047 | 73 | 228 | 2.6 | 9.6 | 0.00 | 0.00 | 0.00 | 45 | 1008.0 |
| 20260504200543 | 72 | 155 | 0.0 | 20.0 | 0.00 | 0.00 | 0.00 | 45 | 1008.2 |
| 20260504200045 | 72 | 239 | 2.6 | 20.0 | 0.00 | 0.00 | 0.00 | 44 | 1008.3 |
| 20260504195540 | 73 | 250 | 1.7 | 9.6 | 0.00 | 0.00 | 0.00 | 43 | 1008.3 |
| 20260504195039 | 73 | 203 | 2.6 | 9.6 | 0.00 | 0.00 | 0.00 | 45 | 1008.4 |
| 20260504194541 | 73 | 233 | 0.9 | 11.3 | 0.00 | 0.00 | 0.00 | 46 | 1008.5 |
| 20260504194036 | 73 | 172 | 0.9 | 7.0 | 0.00 | 0.00 | 0.00 | 44 | 1008.5 |
| 20260504193534 | 72 | 235 | 0.9 | 9.6 | 0.00 | 0.00 | 0.00 | 45 | 1008.4 |
| 20260504193034 | 72 | 218 | 1.7 | 11.3 | 0.00 | 0.00 | 0.00 | 47 | 1008.5 |
| 20260504192533 | 72 | 238 | 2.6 | 14.8 | 0.00 | 0.00 | 0.00 | 43 | 1008.5 |
| 20260504192032 | 72 | 235 | 3.5 | 14.8 | 0.00 | 0.00 | 0.00 | 42 | 1008.6 |
| 20260504191530 | 72 | 228 | 0.9 | 8.7 | 0.00 | 0.00 | 0.00 | 45 | 1008.7 |
| 20260504191030 | 72 | 141 | 2.6 | 10.4 | 0.00 | 0.00 | 0.00 | 45 | 1008.7 |
| 20260504190531 | 71 | 237 | 4.3 | 10.4 | 0.00 | 0.00 | 0.00 | 43 | 1008.8 |
| 20260504190028 | 72 | 237 | 3.5 | 6.1 | 0.00 | 0.00 | 0.00 | 44 | 1009.0 |
| 20260504185525 | 73 | 199 | 2.6 | 5.2 | 0.00 | 0.00 | 0.00 | 42 | 1008.9 |
| 20260504185023 | 72 | 155 | 0.9 | 13.9 | 0.00 | 0.00 | 0.00 | 47 | 1009.0 |